When you browse on this site, cookies collect data to enhance your experience and personalize the content and advertising you see.
Visit our Privacy Policy to learn more. By continuing to use the site, you agree to this use of cookies and data.

Stündliche Wetter Natitingou

Heute, 7 Juli, Dienstag

Zeit Temperatur Niederschläge Wind Luftdruck Luftfeuchtigkeit
00:00 +25°C° 0 mm 1 m/S 717 mmHg 86%
01:00 +25°C° 0 mm 1 m/S 716 mmHg 86%
02:00 +25°C° 0 mm 2 m/S 716 mmHg 87%
03:00 +24°C° 0 mm 2 m/S 715 mmHg 87%
04:00 +24°C° 0 mm 2 m/S 715 mmHg 87%
05:00 +24°C° 0 mm 2 m/S 715 mmHg 88%
06:00 +24°C° 0 mm 2 m/S 716 mmHg 88%
07:00 +25°C° 0 mm 2 m/S 716 mmHg 83%
08:00 +27°C° 0 mm 3 m/S 717 mmHg 79%
09:00 +28°C° 0 mm 3 m/S 717 mmHg 74%
10:00 +30°C° 0 mm 3 m/S 717 mmHg 68%
11:00 +31°C° 0 mm 3 m/S 717 mmHg 63%
12:00 +34°C° 0 mm 3 m/S 717 mmHg 57%
13:00 +34°C° 0 mm 3 m/S 716 mmHg 57%
14:00 +34°C° 0 mm 2 m/S 715 mmHg 57%
15:00 +34°C° 0 mm 2 m/S 714 mmHg 56%
16:00 +31°C° 1 mm 2 m/S 714 mmHg 63%
17:00 +30°C° 1 mm 2 m/S 714 mmHg 71%
18:00 +28°C° 1 mm 2 m/S 714 mmHg 78%
19:00 +27°C° 0.9 mm 2 m/S 715 mmHg 81%
20:00 +27°C° 0.9 mm 2 m/S 715 mmHg 84%
21:00 +26°C° 0.9 mm 2 m/S 716 mmHg 88%
22:00 +26°C° 0 mm 2 m/S 716 mmHg 88%
23:00 +25°C° 0 mm 2 m/S 716 mmHg 89%

Morgen, 8 Juli, Mittwoch

Zeit Temperatur Niederschläge Wind Luftdruck Luftfeuchtigkeit
00:00 +25°C° 0 mm 2 m/S 716 mmHg 90%
01:00 +25°C° 0 mm 2 m/S 715 mmHg 90%
02:00 +24°C° 0 mm 2 m/S 715 mmHg 91%
03:00 +24°C° 0 mm 2 m/S 714 mmHg 92%
04:00 +24°C° 0 mm 2 m/S 715 mmHg 93%
05:00 +24°C° 0 mm 2 m/S 715 mmHg 94%
06:00 +24°C° 0 mm 2 m/S 716 mmHg 95%
07:00 +25°C° 0 mm 2 m/S 716 mmHg 91%
08:00 +25°C° 0 mm 3 m/S 717 mmHg 87%
09:00 +26°C° 0 mm 3 m/S 717 mmHg 84%
10:00 +27°C° 0 mm 3 m/S 717 mmHg 81%
11:00 +27°C° 0 mm 3 m/S 717 mmHg 79%
12:00 +28°C° 0 mm 3 m/S 717 mmHg 76%
13:00 +28°C° 0 mm 3 m/S 717 mmHg 75%
14:00 +28°C° 0 mm 3 m/S 716 mmHg 73%
15:00 +29°C° 0 mm 3 m/S 715 mmHg 72%
16:00 +28°C° 0 mm 2 m/S 716 mmHg 75%
17:00 +27°C° 0 mm 2 m/S 716 mmHg 78%
18:00 +27°C° 0 mm 1 m/S 716 mmHg 82%
19:00 +26°C° 0 mm 1 m/S 716 mmHg 84%
20:00 +25°C° 0 mm 1 m/S 717 mmHg 86%
21:00 +24°C° 0 mm 1 m/S 717 mmHg 89%
22:00 +24°C° 0 mm 1 m/S 717 mmHg 89%
23:00 +24°C° 0 mm 1 m/S 717 mmHg 90%

übermorgen, 9 Juli, Donnerstag

Zeit Temperatur Niederschläge Wind Luftdruck Luftfeuchtigkeit
00:00 +24°C° 0 mm 1 m/S 717 mmHg 91%
01:00 +24°C° 0 mm 1 m/S 717 mmHg 92%
02:00 +24°C° 0 mm 1 m/S 717 mmHg 93%
03:00 +23°C° 0 mm 1 m/S 717 mmHg 94%
04:00 +23°C° 0 mm 1 m/S 717 mmHg 94%
05:00 +23°C° 0 mm 1 m/S 717 mmHg 94%
06:00 +23°C° 0 mm 1 m/S 717 mmHg 95%
07:00 +25°C° 0 mm 2 m/S 718 mmHg 88%
08:00 +26°C° 0 mm 2 m/S 718 mmHg 81%
09:00 +28°C° 0 mm 3 m/S 719 mmHg 74%
10:00 +28°C° 0 mm 3 m/S 718 mmHg 71%
11:00 +29°C° 0 mm 3 m/S 718 mmHg 68%
12:00 +30°C° 0 mm 3 m/S 718 mmHg 65%
13:00 +30°C° 0.3 mm 2 m/S 717 mmHg 64%
14:00 +31°C° 0.3 mm 2 m/S 717 mmHg 63%
15:00 +31°C° 0.3 mm 2 m/S 716 mmHg 62%
16:00 +30°C° 0.7 mm 2 m/S 716 mmHg 68%
17:00 +28°C° 0.7 mm 2 m/S 716 mmHg 74%
18:00 +27°C° 0.7 mm 2 m/S 716 mmHg 79%
19:00 +26°C° 0.3 mm 2 m/S 717 mmHg 83%
20:00 +26°C° 0.3 mm 2 m/S 717 mmHg 86%
21:00 +25°C° 0.3 mm 2 m/S 717 mmHg 90%
22:00 +24°C° 0.1 mm 2 m/S 717 mmHg 91%
23:00 +24°C° 0.1 mm 2 m/S 717 mmHg 92%

10 Juli, Freitag

Zeit Temperatur Niederschläge Wind Luftdruck Luftfeuchtigkeit
00:00 +24°C° 0.1 mm 3 m/S 718 mmHg 92%
01:00 +24°C° 0 mm 3 m/S 717 mmHg 93%
02:00 +24°C° 0 mm 3 m/S 717 mmHg 93%
03:00 +22°C° 0 mm 3 m/S 717 mmHg 93%
04:00 +22°C° 0 mm 3 m/S 717 mmHg 93%
05:00 +22°C° 0 mm 3 m/S 717 mmHg 93%
06:00 +22°C° 0 mm 3 m/S 717 mmHg 93%
07:00 +24°C° 0 mm 3 m/S 718 mmHg 89%
08:00 +25°C° 0 mm 3 m/S 718 mmHg 86%
09:00 +26°C° 0 mm 3 m/S 718 mmHg 82%
10:00 +27°C° 0 mm 3 m/S 718 mmHg 76%
11:00 +28°C° 0 mm 3 m/S 718 mmHg 70%
12:00 +30°C° 0 mm 3 m/S 718 mmHg 65%
13:00 +30°C° 0.2 mm 3 m/S 717 mmHg 66%
14:00 +30°C° 0.2 mm 3 m/S 717 mmHg 67%
15:00 +29°C° 0.2 mm 3 m/S 716 mmHg 68%
16:00 +28°C° 0.8 mm 3 m/S 716 mmHg 75%
17:00 +27°C° 0.8 mm 3 m/S 716 mmHg 82%
18:00 +25°C° 0.8 mm 2 m/S 716 mmHg 89%
19:00 +25°C° 0 mm 2 m/S 716 mmHg 90%
20:00 +25°C° 0 mm 2 m/S 717 mmHg 92%
21:00 +24°C° 0 mm 2 m/S 717 mmHg 93%
22:00 +24°C° 0 mm 2 m/S 717 mmHg 92%
23:00 +24°C° 0 mm 3 m/S 717 mmHg 92%

11 Juli, Samstag

Zeit Temperatur Niederschläge Wind Luftdruck Luftfeuchtigkeit
00:00 +24°C° 0 mm 3 m/S 717 mmHg 92%
01:00 +24°C° 0.1 mm 3 m/S 717 mmHg 92%
02:00 +22°C° 0.1 mm 3 m/S 717 mmHg 93%
03:00 +23°C° 0.1 mm 2 m/S 717 mmHg 94%
04:00 +23°C° 0.3 mm 2 m/S 717 mmHg 94%
05:00 +23°C° 0.3 mm 2 m/S 717 mmHg 94%
06:00 +23°C° 0.3 mm 1 m/S 718 mmHg 95%
07:00 +23°C° 2.7 mm 2 m/S 718 mmHg 95%
08:00 +23°C° 2.7 mm 2 m/S 718 mmHg 95%
09:00 +23°C° 2.7 mm 2 m/S 719 mmHg 95%
10:00 +24°C° 0.2 mm 2 m/S 718 mmHg 91%
11:00 +24°C° 0.2 mm 2 m/S 718 mmHg 86%
12:00 +25°C° 0.2 mm 2 m/S 718 mmHg 81%
13:00 +25°C° 0 mm 2 m/S 717 mmHg 82%
14:00 +25°C° 0 mm 2 m/S 716 mmHg 82%
15:00 +25°C° 0 mm 2 m/S 716 mmHg 82%
16:00 +25°C° 0 mm 2 m/S 716 mmHg 84%
17:00 +25°C° 0 mm 1 m/S 716 mmHg 86%
18:00 +24°C° 0 mm 1 m/S 716 mmHg 87%
19:00 +24°C° 0 mm 1 m/S 716 mmHg 90%
20:00 +23°C° 0 mm 1 m/S 717 mmHg 93%
21:00 +23°C° 0 mm 1 m/S 717 mmHg 96%
22:00 +23°C° 0 mm 1 m/S 717 mmHg 97%
23:00 +22°C° 0 mm 1 m/S 717 mmHg 97%

12 Juli, Sonntag

Zeit Temperatur Niederschläge Wind Luftdruck Luftfeuchtigkeit
00:00 +21°C° 0 mm 2 m/S 717 mmHg 97%
01:00 +21°C° 0 mm 2 m/S 717 mmHg 97%
02:00 +21°C° 0 mm 2 m/S 716 mmHg 96%
03:00 +21°C° 0 mm 2 m/S 716 mmHg 96%
04:00 +21°C° 0 mm 2 m/S 716 mmHg 96%
05:00 +21°C° 0 mm 2 m/S 717 mmHg 96%
06:00 +21°C° 0 mm 3 m/S 717 mmHg 97%
07:00 +22°C° 0 mm 3 m/S 718 mmHg 93%
08:00 +24°C° 0 mm 3 m/S 718 mmHg 88%
09:00 +25°C° 0 mm 4 m/S 719 mmHg 84%
10:00 +25°C° 0 mm 3 m/S 718 mmHg 82%
11:00 +26°C° 0 mm 3 m/S 718 mmHg 80%
12:00 +26°C° 0 mm 3 m/S 718 mmHg 78%
13:00 +27°C° 0 mm 3 m/S 718 mmHg 74%
14:00 +28°C° 0 mm 3 m/S 717 mmHg 70%
15:00 +29°C° 0 mm 2 m/S 717 mmHg 66%
16:00 +28°C° 0 mm 2 m/S 717 mmHg 71%
17:00 +28°C° 0 mm 2 m/S 717 mmHg 75%
18:00 +27°C° 0 mm 1 m/S 716 mmHg 79%
19:00 +26°C° 0 mm 1 m/S 717 mmHg 83%
20:00 +25°C° 0 mm 2 m/S 717 mmHg 86%
21:00 +24°C° 0 mm 2 m/S 717 mmHg 89%
22:00 +24°C° 0 mm 1 m/S 717 mmHg 91%
23:00 +24°C° 0 mm 1 m/S 717 mmHg 92%
Mehr zeigen